Date String (YYYY-MM-DD hh:mm:ss) UTC,Instrument flags,absolute air pressure of the measurement (hPa),sample flow rate (lpm),inlet stack bypass flow (lpm),air temperature of the measurement (°C),ambient temperature measured by the external sensor (°C),aerosol sample conditioner tube jacket temperature (°C),OPC LED temperature (°C),internal box temperature (°C),relative humidity of the measurement (%),span deviation,mass concentration of particles derived from Lorenz-Mie calculation of OPC scattering (μg/m³),mass concentration of particles derived from Lorenz-Mie calculation of OPC scattering (μg/m³),mass concentration of particles derived from Lorenz-Mie calculation of OPC scattering (μg/m³)
DateTimeUTC,F1_M11,P_M11,Q1_M11,Q2_M11,T1_M11,T2_M11,T3_M11,T4_M11,T5_M11,U1_M11,ZSPAN_M11,X0_M11,X2_M11,X1_M11
2024-01-05 22:00:00,SystemResetWarning,0821.9,5.00,000.00,021.6,020.8,000.0,029.9,022.7,12.4,0000.0,0009.48,0004.55,0004.19
2024-01-05 22:01:00,SystemResetWarning,0821.9,5.01,000.00,021.6,020.8,000.0,029.9,022.7,12.4,0000.0,0009.55,0004.50,0004.18
2024-01-05 22:02:00,SystemResetWarning,0821.8,5.00,000.00,021.6,020.7,000.0,029.9,022.7,12.4,0000.0,0009.23,0004.48,0004.17
2024-01-05 22:03:00,SystemResetWarning,0822.0,5.00,000.00,021.6,020.7,000.0,029.9,022.7,12.4,0000.0,0008.47,0004.45,0004.17
2024-01-05 22:04:00,SystemResetWarning,0821.7,4.99,000.00,021.6,020.7,000.0,029.9,022.7,12.3,0000.0,0008.51,0004.45,0004.18
2024-01-05 22:05:00,SystemResetWarning,0821.8,5.00,000.00,021.6,020.8,000.0,029.9,022.7,12.3,0000.0,0009.18,0004.44,0004.17
2024-01-05 22:06:00,SystemResetWarning,0821.9,5.00,000.00,021.6,020.8,000.0,029.9,022.7,12.2,0000.0,0009.24,0004.41,0004.15
2024-01-05 22:07:00,SystemResetWarning,0821.9,5.00,000.00,021.6,020.7,000.0,029.9,022.7,12.1,0000.0,0009.18,0004.41,0004.13
2024-01-05 22:08:00,SystemResetWarning,0821.9,5.00,000.00,021.6,020.7,000.0,029.9,022.7,12.1,0000.0,0009.23,0004.40,0004.11
2024-01-05 22:09:00,SystemResetWarning,0822.0,5.00,000.00,021.6,020.8,000.0,029.9,022.7,12.0,0000.0,0009.16,0004.38,0004.09
2024-01-05 22:10:00,SystemResetWarning,0822.0,5.00,000.00,021.6,020.8,000.0,029.9,022.8,12.0,0000.0,0009.17,0004.38,0004.07
2024-01-05 22:11:00,SystemResetWarning,0821.9,5.01,000.00,021.6,020.8,000.0,029.9,022.8,12.0,0000.0,0008.79,0004.34,0004.04
2024-01-05 22:12:00,SystemResetWarning,0821.9,5.01,000.00,021.6,020.8,000.0,029.9,022.8,11.9,0000.0,0008.57,0004.33,0004.01
2024-01-05 22:13:00,SystemResetWarning,0822.1,5.01,000.00,021.6,020.8,000.0,029.9,022.8,11.9,0000.0,0008.49,0004.28,0003.97
2024-01-05 22:14:00,SystemResetWarning,0821.5,5.00,000.00,021.6,020.8,000.0,029.9,022.8,11.9,0000.0,0008.61,0004.27,0003.93
2024-01-05 22:15:00,SystemResetWarning,0821.5,5.00,000.00,021.6,020.8,000.0,029.9,022.8,11.9,0000.0,0009.30,0004.25,0003.89
2024-01-05 22:16:00,SystemResetWarning,0821.6,4.99,000.00,021.6,020.8,000.0,029.9,022.8,12.0,0000.0,0008.71,0004.22,0003.84
2024-01-05 22:17:00,SystemResetWarning,0821.6,4.99,000.00,021.6,020.8,000.0,029.9,022.8,12.1,0000.0,0008.69,0004.22,0003.81
2024-01-05 22:18:00,SystemResetWarning,0821.6,5.00,000.00,021.6,020.9,000.0,029.9,022.9,12.1,0000.0,0008.87,0004.18,0003.76
2024-01-05 22:19:00,SystemResetWarning,0821.6,5.00,000.00,021.7,020.9,000.0,029.9,022.9,12.1,0000.0,0008.89,0004.14,0003.72
2024-01-05 22:20:00,SystemResetWarning,0821.6,5.00,000.00,021.7,020.9,000.0,029.9,022.9,12.1,0000.0,0009.02,0004.12,0003.70
2024-01-05 22:21:00,SystemResetWarning,0821.6,5.01,000.00,021.7,021.0,000.0,029.9,022.9,12.2,0000.0,0008.92,0004.08,0003.66
2024-01-05 22:22:00,SystemResetWarning,0821.7,5.01,000.00,021.7,021.0,000.0,029.9,022.9,12.2,0000.0,0008.49,0004.05,0003.64
2024-01-05 22:23:00,SystemResetWarning,0821.6,5.00,000.00,021.7,021.0,000.0,029.9,023.0,12.2,0000.0,0008.57,0004.05,0003.63
2024-01-05 22:24:00,SystemResetWarning,0821.6,4.99,000.00,021.7,021.0,000.0,029.9,023.0,12.3,0000.0,0008.61,0004.06,0003.61
2024-01-05 22:25:00,SystemResetWarning,0821.6,5.00,000.00,021.7,021.0,000.0,029.9,022.9,12.3,0000.0,0008.64,0004.07,0003.61
2024-01-05 22:26:00,SystemResetWarning,0821.7,5.00,000.00,021.7,021.0,000.0,029.9,023.0,12.2,0000.0,0008.06,0004.06,0003.61
2024-01-05 22:27:00,SystemResetWarning,0821.7,5.00,000.00,021.7,021.0,000.0,030.0,023.0,12.2,0000.0,0007.75,0004.02,0003.60
2024-01-05 22:28:00,SystemResetWarning,0821.8,5.00,000.00,021.7,021.0,000.0,030.0,023.0,12.2,0000.0,0007.77,0004.02,0003.62
2024-01-05 22:29:00,SystemResetWarning,0821.7,5.00,000.00,021.7,021.0,000.0,030.0,023.0,12.2,0000.0,0007.38,0003.98,0003.63
2024-01-05 22:30:00,SystemResetWarning,0821.7,5.00,000.00,021.8,021.0,000.0,030.0,023.0,12.2,0000.0,0008.03,0003.99,0003.65
2024-01-05 22:31:00,SystemResetWarning,0821.7,5.00,000.00,021.8,021.0,000.0,030.0,023.0,12.2,0000.0,0008.23,0004.01,0003.66
2024-01-05 22:32:00,SystemResetWarning,0821.8,5.01,000.00,021.8,021.0,000.0,030.0,023.0,12.1,0000.0,0008.66,0004.07,0003.68
2024-01-05 22:33:00,SystemResetWarning,0821.8,5.00,000.00,021.8,021.0,000.0,030.0,023.0,12.1,0000.0,0009.10,0004.09,0003.70
2024-01-05 22:34:00,SystemResetWarning,0821.8,4.99,000.00,021.8,021.1,000.0,030.0,023.0,12.1,0000.0,0009.49,0004.12,0003.71
2024-01-05 22:35:00,SystemResetWarning,0821.8,4.99,000.00,021.8,021.1,000.0,030.0,023.0,12.0,0000.0,0009.55,0004.14,0003.73
2024-01-05 22:36:00,SystemResetWarning,0821.8,5.00,000.00,021.8,021.1,000.0,030.0,023.0,12.0,0000.0,0010.32,0004.15,0003.73
2024-01-05 22:37:00,SystemResetWarning,0821.8,5.00,000.00,021.8,021.1,000.0,030.0,023.0,12.0,0000.0,0011.28,0004.14,0003.73
2024-01-05 22:38:00,SystemResetWarning,0821.8,5.01,000.00,021.8,021.1,000.0,030.0,023.1,11.9,0000.0,0011.35,0004.17,0003.75
2024-01-05 22:39:00,SystemResetWarning,0821.8,5.00,000.00,021.8,021.1,000.0,030.1,023.1,11.9,0000.0,0011.41,0004.21,0003.76
2024-01-05 22:40:00,SystemResetWarning,0821.8,5.00,000.00,021.8,021.1,000.0,030.1,023.1,11.9,0000.0,0011.41,0004.22,0003.76
2024-01-05 22:41:00,SystemResetWarning,0821.9,5.01,000.00,021.9,021.1,000.0,030.1,023.1,11.9,0000.0,0011.10,0004.22,0003.76
2024-01-05 22:42:00,SystemResetWarning,0822.0,5.00,000.00,021.9,021.2,000.0,030.1,023.1,11.9,0000.0,0010.48,0004.21,0003.76
2024-01-05 22:43:00,SystemResetWarning,0822.0,5.00,000.00,021.9,021.2,000.0,030.1,023.2,12.0,0000.0,0010.12,0004.13,0003.72
2024-01-05 22:44:00,SystemResetWarning,0822.0,5.00,000.00,021.9,021.2,000.0,030.1,023.1,12.0,0000.0,0009.82,0004.12,0003.72
2024-01-05 22:45:00,SystemResetWarning,0822.0,5.00,000.00,021.9,021.1,000.0,030.1,023.1,12.0,0000.0,0008.93,0004.10,0003.71
2024-01-05 22:46:00,SystemResetWarning,0821.9,5.00,000.00,021.9,021.1,000.0,030.1,023.1,12.0,0000.0,0008.87,0004.09,0003.71
2024-01-05 22:47:00,SystemResetWarning,0821.9,5.00,000.00,021.9,021.1,000.0,030.1,023.1,12.0,0000.0,0008.23,0004.06,0003.71
2024-01-05 22:48:00,SystemResetWarning,0822.0,5.01,000.00,021.9,021.1,000.0,030.1,023.1,11.9,0000.0,0007.38,0004.08,0003.72
2024-01-05 22:49:00,SystemResetWarning,0822.0,4.99,000.00,021.9,021.1,000.0,030.1,023.1,11.9,0000.0,0007.88,0004.08,0003.72
2024-01-05 22:50:00,SystemResetWarning,0822.0,4.99,000.00,021.9,021.1,000.0,030.1,023.1,11.9,0000.0,0008.32,0004.06,0003.73
2024-01-05 22:51:00,SystemResetWarning,0822.0,4.99,000.00,021.9,021.1,000.0,030.1,023.1,11.9,0000.0,0008.49,0004.05,0003.74
2024-01-05 22:52:00,SystemResetWarning,0822.0,4.99,000.00,021.9,021.1,000.0,030.1,023.1,12.0,0000.0,0008.55,0004.06,0003.75
2024-01-05 22:53:00,SystemResetWarning,0822.1,5.00,000.00,021.9,021.1,000.0,030.1,023.1,12.0,0000.0,0008.60,0004.11,0003.77
2024-01-05 22:54:00,SystemResetWarning,0822.1,5.01,000.00,021.9,021.1,000.0,030.2,023.1,12.0,0000.0,0008.96,0004.16,0003.78
2024-01-05 22:55:00,SystemResetWarning,0822.1,5.01,000.00,021.9,021.1,000.0,030.2,023.2,12.0,0000.0,0009.63,0004.17,0003.79
2024-01-05 22:56:00,SystemResetWarning,0822.1,5.00,000.00,021.9,021.2,000.0,030.2,023.2,12.0,0000.0,0009.93,0004.19,0003.79
2024-01-05 22:57:00,SystemResetWarning,0822.1,4.99,000.00,022.0,021.2,000.0,030.2,023.2,12.0,0000.0,0009.93,0004.19,0003.79
2024-01-05 22:58:00,SystemResetWarning,0822.1,4.99,000.00,022.0,021.2,000.0,030.2,023.2,12.0,0000.0,0009.95,0004.20,0003.80
2024-01-05 22:59:00,SystemResetWarning,0822.3,5.00,000.00,022.0,021.2,000.0,030.2,023.2,12.0,0000.0,0009.73,0004.17,0003.80
